User: anonymous   Login
Location: Beaurevoir
(49.9971°N, 3.3085°E)
Time: 13:43:36
(UTC+00:00)
Language:

CZ-2D R/B - Orbit

View from above orbital plane
View from above orbital plane
View from above satellite
View from above satellite

Ground track
Ground track

The orbit data is extracted from the following two-line orbital elements,

1 37932U 11068C   24202.87219431  .00000383  00000-0  18999-3 0  9998
2 37932  98.7974 144.5986 0037905 105.8623 323.7581 14.22541209657463
Epoch (UTC): 20 July 2024 20:55:57
Eccentricity: 0.0037905
inclination: 98.7974°
perigee height: 789 km
apogee height: 844 km
right ascension of ascending node: 144.5986°
argument of perigee: 105.8623°
revolutions per day: 14.22541209
mean anomaly at epoch: 323.7581°
orbit number at epoch: 65746

The dashed part of the orbit path shows where the satellite is in the earth's shadow,  

DLR